• Join FlightAware (Why Join?)
  • Login
  • US Flag 
04:20AM EDT


 

Airport Tracker/Info


-or-


 

Live Flight TrackerFlight Track Log ✈ SWA4138 ✈ 04-Jan-2014 ✈ KMSY - KMCO

Flight Track Log - Related Links

Times and Time Zones

All times are in EST time to prevent confusion due to time zone crossing. See the SWA4138 flight status page for this flight to view local times or setup timezone preferences in your user account.

Time Position Orientation Groundspeed Altitude Reporting Facility
EST Latitude Longitude Course Direction KTS MPH feet Rate Location/Type
10:08AM 30.0050 -90.2456 22° Northeast 137 158 700  Level Houston Center
10:10AM 30.0786 -90.2106 22° Northeast 223 257 3,500 2,100 Climbing Houston Center
10:11AM 30.0417 -90.1561 128° Southeast 234 269 6,000 3,000 Climbing Houston Center
10:12AM 29.9767 -90.1128 150° Southeast 259 298 9,700 3,240 Climbing Houston Center
10:13AM 29.9050 -90.0628 149° Southeast 286 329 12,700 3,120 Climbing Houston Center
10:14AM 29.8222 -90.0047 149° Southeast 329 379 16,100 2,940 Climbing Houston Center
10:15AM 29.7372 -89.9447 148° Southeast 355 409 18,800 3,000 Climbing Houston Center
10:16AM 29.6492 -89.8406 134° Southeast 402 463 22,300 2,820 Climbing Houston Center
10:17AM 29.6147 -89.7164 108° East 410 472 24,700 2,340 Climbing Houston Center
10:18AM 29.5769 -89.5867 108° East 424 488 27,100 2,040 Climbing Houston Center
10:19AM 29.5386 -89.4519 108° East 441 507 29,000 1,800 Climbing Houston Center
10:20AM 29.4997 -89.3158 108° East 449 517 30,800 1,380 Climbing Houston Center
10:21AM 29.4592 -89.1761 108° East 460 529 31,900 1,020 Climbing Houston Center
10:22AM 29.4186 -89.0350 108° East 467 537 32,900 720 Climbing Houston Center
10:23AM 29.3681 -88.8608 108° East 477 549 33,400 1,320 Climbing Houston Center
10:24AM 29.3258 -88.7189 109° East 473 544 35,700 1,620 Climbing Houston Center
10:25AM 29.2853 -88.5808 109° East 462 532 36,800 960 Climbing Houston Center
10:26AM 29.2433 -88.4400 109° East 467 537 37,700 1,020 Climbing Houston Center
10:27AM 29.2006 -88.2964 109° East 476 548 39,000 600 Climbing Houston Center
10:28AM 29.1569 -88.1539 109° East 474 545 39,000  Level Houston Center
10:29AM 29.1128 -88.0028 108° East 476 548 39,000  Level Houston Center
10:30AM 29.0706 -87.8622 109° East 470 541 39,000  Level Houston Center
10:31AM 29.0181 -87.6919 109° East 474 545 39,000  Level Houston Center
10:32AM 28.9753 -87.5517 109° East 472 543 39,000  Level Houston Center
10:33AM 28.9325 -87.4108 109° East 470 541 39,000  Level Houston Center
10:34AM 28.8889 -87.2700 109° East 472 543 39,000  Level Houston Center
10:35AM 28.8444 -87.1292 110° East 475 547 39,000  Level Houston Center
10:36AM 28.8006 -86.9875 109° East 474 545 39,000  Level Houston Center
10:38AM 28.7472 -86.8183 110° East 475 547 39,000  Level Jacksonville Center
10:39AM 28.7017 -86.6722 110° East 480 552 39,000  Level Jacksonville Center
10:40AM 28.6556 -86.5286 110° East 480 552 39,000  Level Jacksonville Center
10:41AM 28.6097 -86.3828 110° East 478 550 39,000  Level Jacksonville Center
10:42AM 28.5672 -86.2467 110° East 476 548 39,000  Level Jacksonville Center
10:43AM 28.5189 -86.1056 111° Southeast 471 542 39,000  Level Jacksonville Center
10:44AM 28.4744 -85.9600 109° East 477 549 39,000  Level Jacksonville Center
10:45AM 28.4294 -85.8242 111° Southeast 472 543 39,000  Level Jacksonville Center
10:46AM 28.3825 -85.6836 111° Southeast 477 549 39,000  Level Jacksonville Center
10:47AM 28.3375 -85.5408 110° East 470 541 39,000  Level Jacksonville Center
10:48AM 28.2903 -85.4031 111° Southeast 475 547 39,000  Level Jacksonville Center
10:50AM 28.1558 -84.9844 110° East 479 551 39,000  Level Miami Center
10:51AM 28.1117 -84.8472 110° East 479 551 39,000  Level Miami Center
10:52AM 28.0614 -84.7006 111° Southeast 470 541 39,000  Level Miami Center
10:53AM 28.0167 -84.5636 110° East 470 541 39,000  Level Miami Center
10:54AM 27.9786 -84.4178 106° East 470 541 39,000  Level Miami Center
10:55AM 27.9650 -84.2806 96° East 480 552 39,000  Level Miami Center
10:56AM 27.9542 -84.1250 94° East 485 558 39,000 -900 Level Miami Center
10:57AM 27.9428 -83.9739 95° East 491 565 37,300 -2,220 Descending Miami Center
10:58AM 27.9317 -83.8183 95° East 491 565 34,600 -2,880 Descending Miami Center
10:59AM 27.9183 -83.6628 96° East 491 565 31,600 -2,700 Descending Miami Center
11:00AM 27.9047 -83.5069 96° East 491 565 29,200 -1,800 Descending Miami Center
11:01AM 27.8950 -83.3586 94° East 491 565 28,000 -1,200 Descending Miami Center
11:02AM 27.8828 -83.2122 95° East 480 552 26,900 -1,080 Descending Miami Center
11:03AM 27.8703 -83.0661 95° East 475 547 25,900 -1,020 Descending Miami Center
11:04AM 27.8597 -82.9247 95° East 459 528 24,900 -1,020 Descending Miami Center
11:05AM 27.8467 -82.7833 96° East 459 528 23,900 -1,020 Descending Miami Center
11:06AM 27.8336 -82.6442 96° East 448 516 22,900 -1,080 Descending Miami Center
11:07AM 27.8328 -82.5056 90° East 442 509 21,800 -1,200 Descending Miami Center
11:08AM 27.8714 -82.3761 71° East 437 503 20,600 -1,740 Descending Miami Center
11:10AM 27.9500 -82.1333 70° East 424 488 17,000 -2,220 Descending Orlando TRACON
11:11AM 27.9833 -82.0167 72° East 400 460 14,500 -2,040 Descending Orlando TRACON
11:12AM 28.0333 -81.9167 60° Northeast 363 418 13,000 -1,200 Descending Orlando TRACON
11:13AM 28.1000 -81.8500 41° Northeast 309 356 12,100 -1,200 Descending Orlando TRACON
11:14AM 28.1667 -81.7833 41° Northeast 307 353 10,700 -1,500 Descending Orlando TRACON
11:15AM 28.1833 -81.7000 77° East 297 342 9,100 -1,680 Descending Orlando TRACON
11:16AM 28.2000 -81.6000 79° East 286 329 7,400 -1,740 Descending Orlando TRACON
11:17AM 28.2333 -81.5167 66° East 284 327 5,600 -1,620 Descending Orlando TRACON
11:18AM 28.2667 -81.4500 60° Northeast 255 293 4,200 -1,620 Descending Orlando TRACON
11:19AM 28.3000 -81.3833 60° Northeast 250 288 2,400 -1,200 Descending Orlando TRACON
11:20AM 28.3333 -81.3167 60° Northeast 172 198 1,800 -480 Descending Orlando TRACON
11:21AM 28.3500 -81.2833 60° Northeast 139 160 1,500 -600 Descending Orlando TRACON
11:22AM 28.4000 -81.2833 360° North 139 160 700 -840 Descending Orlando TRACON
11:24AM 28.4294 -81.3090 North  Level Estimated